Location: Gro�sch�nbrunn
(49.5760°N, 11.8868°E)
Time: 12:51:36
(UTC+00:00)

Meteor 1-24 Rocket - Pass Details

Date: 18 September 2020
Orbit: 790 x 927 km, 81.2° (Epoch: 23 October)

Event Time Altitude Azimuth Distance (km) Brightness Sun altitude
Rises 19:05:07 0° 352° (N) 3,341 7.3 -17.6°
Reaches altitude 10° 19:07:37 10° 360° (N) 2,421 6.4 -17.9°
Maximum altitude 19:12:48 42° 71° (ENE) 1,186 4.1 -18.7°
Enters shadow 19:14:23 34° 109° (ESE) 1,358 4.2 -18.9°
